User: anonymous
Location: Oshawa
(43.9000°N, 78.8670°W)
Time: 15:53:40
(UTC-04:00)
Language:

CZ-4C R/B - Orbit

View from above orbital plane
View from above orbital plane
View from above satellite
View from above satellite

Ground track
Ground track

The orbit data is extracted from the following two-line orbital elements,

1 32290U 07055B   14272.32734836  .00010502  00000-0  40030-3 0  9746
2 32290 097.5674 347.7970 0087598 046.3810 353.9926 15.23299088380120
Epoch (UTC): 29 September 2014 07:51:22
Eccentricity: 0.0087598
inclination: 97.5674°
perigee height: 435 km
apogee height: 556 km
right ascension of ascending node: 347.7970°
argument of perigee: 46.3810°
revolutions per day: 15.23299088
mean anomaly at epoch: 353.9926°
orbit number at epoch: 38012

The dashed part of the orbit path shows where the satellite is in the earth's shadow,  

DLR